Regional Weather Roundup
Issued by NWS Cleveland, OH

Home | Current Version | Previous Version | Graphics & Text | Print | Product List | Glossary On
Versions: 1 2 3 4 5 6 7 8 9 10 11 12 13 14 15 16 17 18 19 20 21 22 23 24 25 26 27 28 29 30 31 32 33 34 35 36 37 38 39 40 41 42 43 44 45 46 47 48 49 50
000
ASUS41 KCLE 290412
RWRCLE
OHIO REGIONAL WEATHER ROUNDUP
NATIONAL WEATHER SERVICE WILMINGTON, OH
1200 AM EDT SAT APR 29 2017

NOTE: "FAIR" INDICATES FEW OR NO CLOUDS BELOW 12,000 FEET WITH NO
SIGNIFICANT WEATHER AND/OR OBSTRUCTIONS TO VISIBILITY.

OHZ001>008-015>018-024>027-034-035-043-044-290500-
   NORTHWEST OHIO

CITY           SKY/WX    TMP DP  RH WIND       PRES   REMARKS
DEFIANCE       LGT RAIN  52  50  93 E3        29.97R
FINDLAY        LGT RAIN  57  53  86 SE6       29.93F
TOLEDO EXPRESS CLOUDY    53  52  96 N3        29.97R
TOLEDO EXEC    CLOUDY    56  52  86 NE3       29.97R
LIMA           CLOUDY    57  55  93 E8        29.93S
$$

OHZ009>014-019>023-028>033-038-089-290500-
   NORTHEAST OHIO

CITY           SKY/WX    TMP DP  RH WIND       PRES   REMARKS
CLE-HOPKINS    LGT RAIN  57  52  83 SE7       29.97F
CLE-LAKEFRONT  LGT RAIN  57  52  83 S15       29.94F
CUY CO. ARPT   NOT AVBL
LORAIN-ELYRIA  LGT RAIN  54  50  86 CALM      29.96F
ASHTABULA      LGT RAIN  56  51  84 S6        30.01F
AKRON-CANTON   TSTM      56  51  84 SE14      30.00F
WOOSTER        LGT RAIN  55  52  89 SE12      29.97F
MANSFIELD      CLOUDY    55  53  93 SE9       29.95R
YOUNGSTOWN     TSTM      55  51  86 SE13G20   30.01F
$$

OHZ042-051>053-060>062-070>072-077>081-290500-
  SOUTHWEST OHIO

CITY           SKY/WX    TMP DP  RH WIND       PRES   REMARKS
CINC-COVINGTON LGT RAIN  63  62  97 E16       29.86F
CINC-LUNKEN    LGT RAIN  63  63 100 E3        29.90F
HAMILTON       LGT RAIN  61  61 100 E5        29.93S
DAYTON         CLOUDY    57  55  93 SE16      29.96R
WRIGHT-PAT AFB LGT RAIN  59  59 100 E9        29.95R
DAYTON GENERAL CLOUDY    58  56  93 E14G23    29.94S
WILMINGTON     MOCLDY    58  57  97 E12       29.97R
$$

OHZ036-037-039>041-045>050-054>059-063>069-073>076-082>088-290500-
  CENTRAL AND SOUTHEAST OHIO

CITY           SKY/WX    TMP DP  RH WIND       PRES   REMARKS
COLUMBUS       CLOUDY    57  55  93 E9        29.97F
OSU AIRPORT    MOCLDY    57  56  96 E9        29.97F
BOLTON FIELD   MOCLDY    56  55  96 E9        29.98F
RICKENBACK AFB MOCLDY    56  55  97 E9        29.98R
NEWARK         LGT RAIN  57  55  93 NE9       29.99F
MARION         CLOUDY    58  53  84 SE9       29.96R
LANCASTER      MOCLDY    59  54  83 E7        29.99F
ZANESVILLE     TSTM      58  52  80 E15       30.00F
NEW PHILLY     LGT RAIN  56  53  90 E6        30.03R
$$



USA.gov is the U.S. government's official web portal to all federal, state and local government web resources and services.